Caldwell, NJ

9:18 AM EDT on September 18, 2019 (GMT -0400)
Essex County

Weather History for KCDW - May, 2019

Change the Weather History Date:

Tuesday, May 28, 2019

  Actual Average Record
Temperature  
Mean Temperature 66 °F -  
Max Temperature 72 °F 74 °F 93 °F (2016)
Min Temperature 61 °F 50 °F 39 °F (1961)
Cooling Degree Days 1    
Growing Degree Days 16 (Base 50)    
Moisture  
Dew Point 63 °F    
Average Humidity 86    
Maximum Humidity 100    
Minimum Humidity 63    
Precipitation  
Precipitation 0.34 in - - ()
Sea Level Pressure  
Sea Level Pressure 29.77 in    
Wind  
Wind Speed 3 mph (ESE)    
Max Wind Speed 17 mph    
Max Gust Speed 33 mph    
Visibility 6 miles    
Events Rain , Thunderstorm    
Averages and records for this station are not official NWS values.
T = Trace of Precipitation, MM = Missing Value Source: NWS Daily Summary

Daily Weather History Graph

Daily Weather History Graph

Search for Another Location

Airport or City:

Astronomy

May. 28, 2019 Rise Set
Actual Time 5:29 AM EDT 8:19 PM EDT
Civil Twilight 4:57 AM EDT 8:51 PM EDT
Nautical Twilight 4:16 AM EDT 9:32 PM EDT
Astronomical Twilight 3:29 AM EDT 10:19 PM EDT
Moon 2:43 AM EDT (5/28) 2:23 PM EDT (5/28)
Length of Visible Light 15h 54m
Length of Day
14h 49m
Waning Crescent, 32% of the Moon is Illuminated
May 28
Waning Crescent
Jun 3
New
Jun 10
First Quarter
Jun 17
Full
Jun 25
Last Quarter

Hourly Weather History & Observations

Time (EDT) Temp. Dew Point Humidity Pressure Visibility Wind Dir Wind Speed Gust Speed Precip Events Conditions
12:53 AM 63.0 °F 54.0 °F 72% 29.92 in 10.0 mi Calm Calm - N/A   Clear
1:53 AM 64.0 °F 55.0 °F 73% 29.92 in 10.0 mi Calm Calm - N/A   Clear
2:53 AM 63.0 °F 55.9 °F 78% 29.91 in 10.0 mi Calm Calm - N/A   Clear
3:53 AM 63.0 °F 55.0 °F 75% 29.93 in 10.0 mi Calm Calm - N/A   Clear
4:53 AM 61.0 °F 55.0 °F 81% 29.93 in 10.0 mi Calm Calm - N/A   Clear
5:53 AM 62.1 °F 55.0 °F 78% 29.93 in 10.0 mi ENE 3.5 mph - N/A   Clear
6:53 AM 64.9 °F 53.1 °F 65% 29.93 in 10.0 mi ENE 8.1 mph - N/A   Clear
7:53 AM 66.9 °F 54.0 °F 63% 29.93 in 10.0 mi East 9.2 mph - N/A   Mostly Cloudy
8:53 AM 66.0 °F 55.0 °F 68% 29.91 in 10.0 mi East 10.4 mph - N/A   Overcast
9:53 AM 64.9 °F 55.9 °F 73% 29.89 in 10.0 mi ESE 5.8 mph - 0.00 in   Overcast
10:53 AM 64.9 °F 57.9 °F 78% 29.91 in 3.0 mi SSE 3.5 mph - 0.02 in Rain Rain
11:04 AM 64.0 °F 60.1 °F 87% 29.88 in 3.0 mi ESE 4.6 mph - 0.01 in Rain Light Rain
11:38 AM 64.0 °F 61.0 °F 90% 29.86 in 8.0 mi SSE 10.4 mph - 0.01 in Rain Light Rain
11:53 AM 64.0 °F 61.0 °F 90% 29.87 in 3.0 mi SE 6.9 mph - 0.03 in Rain Light Rain
12:11 PM 64.0 °F 61.0 °F 90% 29.83 in 6.0 mi SE 8.1 mph - 0.00 in Rain Light Rain
12:48 PM 64.4 °F 62.6 °F 94% 29.81 in 8.0 mi SE 5.8 mph - 0.00 in   Overcast
12:53 PM 64.0 °F 62.1 °F 93% 29.82 in 7.0 mi ESE 4.6 mph - 0.00 in Rain Light Rain
1:16 PM 64.9 °F 62.1 °F 90% 29.79 in 6.0 mi SE 5.8 mph - 0.00 in Rain Light Rain
1:53 PM 66.0 °F 63.0 °F 90% 29.79 in 6.0 mi Variable 3.5 mph - 0.00 in   Overcast
2:53 PM 68.0 °F 64.0 °F 87% 29.76 in 9.0 mi South 4.6 mph - N/A   Overcast
3:53 PM 68.0 °F 64.9 °F 90% 29.75 in 7.0 mi Calm Calm - 0.00 in   Overcast
4:53 PM 71.1 °F 66.9 °F 87% 29.71 in 7.0 mi Calm Calm - N/A   Overcast
5:53 PM 71.1 °F 66.9 °F 87% 29.70 in 6.0 mi NE 3.5 mph - N/A   Overcast
6:06 PM 71.1 °F 66.0 °F 84% 29.68 in 6.0 mi Calm Calm - N/A   Haze
6:28 PM 71.1 °F 66.0 °F 84% 29.67 in 7.0 mi ENE 4.6 mph - N/A   Scattered Clouds
6:53 PM 71.1 °F 66.0 °F 84% 29.68 in 8.0 mi NNE 3.5 mph - N/A   Mostly Cloudy
7:02 PM 71.1 °F 66.0 °F 84% 29.66 in 7.0 mi Calm Calm - N/A   Overcast
7:13 PM 71.1 °F 66.0 °F 84% 29.67 in 7.0 mi Calm Calm - N/A   Overcast
7:32 PM 70.0 °F 66.0 °F 87% 29.66 in 8.0 mi Calm Calm - N/A   Scattered Clouds
7:53 PM 70.0 °F 66.0 °F 87% 29.70 in 7.0 mi Variable 4.6 mph - N/A   Mostly Cloudy
8:08 PM 69.1 °F 66.0 °F 90% 29.69 in 8.0 mi NE 3.5 mph - N/A   Overcast
8:28 PM 69.1 °F 64.9 °F 87% 29.70 in 9.0 mi Calm Calm - 0.00 in Rain , Thunderstorm Light Rain
8:44 PM 68.0 °F 66.0 °F 93% 29.68 in 3.0 mi WSW 5.8 mph - 0.03 in Rain , Thunderstorm Thunderstorms and Rain
8:51 PM 68.0 °F 66.2 °F 94% 29.67 in 2.0 mi Variable 6.9 mph - 0.07 in Rain , Thunderstorm Heavy Thunderstorms and Rain
8:53 PM 68.0 °F 66.0 °F 93% 29.68 in 2.0 mi Variable 5.8 mph - 0.08 in Rain , Thunderstorm Thunderstorms and Rain
9:03 PM 69.1 °F 66.9 °F 93% 29.61 in 1.2 mi SSW 17.3 mph 33.4 mph 0.15 in Rain , Thunderstorm Heavy Thunderstorms and Rain
9:09 PM 71.1 °F 64.0 °F 78% 29.66 in 4.0 mi WSW 10.4 mph 28.8 mph 0.15 in Rain , Thunderstorm Light Thunderstorms and Rain
9:26 PM 70.0 °F 66.0 °F 87% 29.70 in 10.0 mi North 4.6 mph - 0.15 in Rain , Thunderstorm Light Rain
9:53 PM 68.0 °F 66.9 °F 96% 29.71 in 8.0 mi North 3.5 mph - 0.16 in Rain , Thunderstorm Light Rain
10:13 PM 68.0 °F 66.9 °F 96% 29.70 in 2.0 mi ENE 3.5 mph - 0.05 in Rain , Thunderstorm Light Rain
10:16 PM 68.0 °F 66.9 °F 96% 29.70 in 3.0 mi Calm Calm - 0.05 in Rain Light Rain
10:45 PM 66.9 °F 66.9 °F 100% 29.69 in 1.8 mi Calm Calm - 0.05 in   Partly Cloudy
10:53 PM 66.9 °F 66.0 °F 97% 29.71 in 1.2 mi Calm Calm - 0.05 in   Mostly Cloudy
11:44 PM 66.9 °F 66.9 °F 100% 29.68 in 2.5 mi Calm Calm - N/A   Mostly Cloudy
11:53 PM 66.9 °F 66.0 °F 97% 29.70 in 2.5 mi Calm Calm - N/A   Mostly Cloudy